Time,TemperatureF,DewpointF,PressureIn,WindDirection,WindDirectionDegrees,WindSpeedMPH,WindSpeedGustMPH,Humidity,HourlyPrecipIn,Conditions,Clouds,dailyrainin,SoftwareType,DateUTC
2013-03-03 00:02:00,32.0,22.0,29.71,WNW,296,4.0,12.0,67,0.00,,,0.00,,2013-03-03 05:02:00,
2013-03-03 00:12:00,32.0,22.0,29.71,WNW,296,4.0,12.0,67,0.00,,,0.00,,2013-03-03 05:12:00,
2013-03-03 00:22:00,32.0,22.0,29.71,NNW,333,5.0,10.0,65,0.00,,,0.00,,2013-03-03 05:22:00,
2013-03-03 00:32:00,32.0,22.0,29.71,NNW,333,5.0,10.0,65,0.00,,,0.00,,2013-03-03 05:32:00,
2013-03-03 00:42:00,32.0,22.0,29.71,NNW,333,5.0,10.0,65,0.00,,,0.00,,2013-03-03 05:42:00,
2013-03-03 00:52:00,32.0,21.0,29.71,NNW,331,4.0,10.0,64,0.00,,,0.00,,2013-03-03 05:52:00,
2013-03-03 01:02:00,32.0,21.0,29.72,NW,317,7.0,11.0,63,0.00,,,0.00,,2013-03-03 06:02:00,
2013-03-03 01:11:00,32.0,21.0,29.72,NW,317,7.0,11.0,63,0.00,,,0.00,,2013-03-03 06:11:00,
2013-03-03 01:21:00,31.0,20.0,29.71,NNW,335,10.0,12.0,62,0.00,,,0.00,,2013-03-03 06:21:00,
2013-03-03 01:32:00,31.0,20.0,29.72,NNW,345,6.0,11.0,62,0.00,,,0.00,,2013-03-03 06:32:00,
2013-03-03 01:42:00,31.0,20.0,29.72,NNW,345,6.0,11.0,62,0.00,,,0.00,,2013-03-03 06:42:00,
2013-03-03 01:52:00,31.0,19.0,29.72,NNW,334,3.0,9.0,61,0.00,,,0.00,,2013-03-03 06:52:00,
2013-03-03 02:01:00,31.0,19.0,29.72,NNW,334,3.0,9.0,61,0.00,,,0.00,,2013-03-03 07:01:00,
2013-03-03 02:11:00,31.0,19.0,29.72,NNW,334,3.0,9.0,61,0.00,,,0.00,,2013-03-03 07:11:00,
2013-03-03 02:21:00,31.0,19.0,29.71,NW,323,5.0,14.0,61,0.00,,,0.00,,2013-03-03 07:21:00,
2013-03-03 02:32:00,31.0,19.0,29.71,NW,319,5.0,10.0,61,0.00,,,0.00,,2013-03-03 07:32:00,
2013-03-03 02:42:00,31.0,19.0,29.71,NW,319,5.0,10.0,61,0.00,,,0.00,,2013-03-03 07:42:00,
2013-03-03 02:52:00,31.0,19.0,29.71,NW,314,3.0,10.0,60,0.00,,,0.00,,2013-03-03 07:52:00,
2013-03-03 03:01:00,31.0,19.0,29.70,NNW,344,9.0,13.0,60,0.00,,,0.00,,2013-03-03 08:01:00,
2013-03-03 03:11:00,31.0,19.0,29.70,NNW,344,9.0,13.0,60,0.00,,,0.00,,2013-03-03 08:11:00,
2013-03-03 03:21:00,31.0,18.0,29.70,NNW,333,11.0,12.0,59,0.00,,,0.00,,2013-03-03 08:21:00,
2013-03-03 03:32:00,31.0,19.0,29.70,NW,313,4.0,10.0,60,0.00,,,0.00,,2013-03-03 08:32:00,
2013-03-03 03:42:00,31.0,19.0,29.70,NW,313,4.0,10.0,60,0.00,,,0.00,,2013-03-03 08:42:00,
2013-03-03 03:54:00,31.0,18.0,29.70,NNW,335,5.0,11.0,58,0.00,,,0.00,,2013-03-03 08:54:00,
2013-03-03 04:01:00,31.0,18.0,29.70,North,358,3.0,10.0,57,0.00,,,0.00,,2013-03-03 09:01:00,
2013-03-03 04:12:00,31.0,18.0,29.70,North,358,3.0,10.0,57,0.00,,,0.00,,2013-03-03 09:12:00,
2013-03-03 04:21:00,30.0,17.0,29.70,NW,304,3.0,11.0,57,0.00,,,0.00,,2013-03-03 09:21:00,
2013-03-03 04:32:00,30.0,17.0,29.70,NW,316,5.0,8.0,57,0.00,,,0.00,,2013-03-03 09:32:00,
2013-03-03 04:42:00,30.0,17.0,29.70,NW,316,5.0,8.0,57,0.00,,,0.00,,2013-03-03 09:42:00,
2013-03-03 04:52:00,30.0,17.0,29.70,North,354,5.0,10.0,57,0.00,,,0.00,,2013-03-03 09:52:00,
2013-03-03 05:01:00,30.0,17.0,29.70,North,357,6.0,10.0,57,0.00,,,0.00,,2013-03-03 10:01:00,
2013-03-03 05:11:00,30.0,17.0,29.70,North,357,6.0,10.0,57,0.00,,,0.00,,2013-03-03 10:11:00,
2013-03-03 05:21:00,30.0,16.0,29.70,NW,316,2.0,9.0,56,0.00,,,0.00,,2013-03-03 10:21:00,
2013-03-03 05:32:00,30.0,16.0,29.70,NW,305,6.0,10.0,56,0.00,,,0.00,,2013-03-03 10:32:00,
2013-03-03 05:42:00,30.0,16.0,29.70,NW,305,6.0,10.0,56,0.00,,,0.00,,2013-03-03 10:42:00,
2013-03-03 05:52:00,30.0,16.0,29.70,NW,311,8.0,12.0,56,0.00,,,0.00,,2013-03-03 10:52:00,
2013-03-03 06:01:00,30.0,16.0,29.71,North,349,5.0,10.0,56,0.00,,,0.00,,2013-03-03 11:01:00,
2013-03-03 06:11:00,30.0,16.0,29.71,North,349,5.0,10.0,56,0.00,,,0.00,,2013-03-03 11:11:00,
2013-03-03 06:22:00,30.0,16.0,29.71,NW,322,6.0,10.0,56,0.00,,,0.00,,2013-03-03 11:22:00,
2013-03-03 06:32:00,30.0,16.0,29.71,NW,324,8.0,10.0,56,0.00,,,0.00,,2013-03-03 11:32:00,
2013-03-03 06:42:00,30.0,16.0,29.71,NW,324,8.0,10.0,56,0.00,,,0.00,,2013-03-03 11:42:00,
2013-03-03 06:52:00,30.0,16.0,29.71,NNW,343,6.0,10.0,56,0.00,,,0.00,,2013-03-03 11:52:00,
2013-03-03 07:02:00,30.0,17.0,29.71,WNW,301,3.0,7.0,57,0.00,,,0.00,,2013-03-03 12:02:00,
2013-03-03 07:11:00,30.0,17.0,29.71,WNW,301,3.0,7.0,57,0.00,,,0.00,,2013-03-03 12:11:00,
2013-03-03 07:21:00,30.0,17.0,29.71,NNW,328,9.0,10.0,57,0.00,,,0.00,,2013-03-03 12:21:00,
2013-03-03 07:32:00,30.0,16.0,29.72,NNW,336,5.0,10.0,56,0.00,,,0.00,,2013-03-03 12:32:00,
2013-03-03 07:43:00,30.0,16.0,29.72,NNW,336,5.0,10.0,56,0.00,,,0.00,,2013-03-03 12:43:00,
2013-03-03 07:53:00,30.0,16.0,29.72,North,353,3.0,12.0,56,0.00,,,0.00,,2013-03-03 12:53:00,
2013-03-03 08:01:00,30.0,16.0,29.72,NNW,347,10.0,15.0,55,0.00,,,0.00,,2013-03-03 13:01:00,
2013-03-03 08:11:00,30.0,16.0,29.72,NNW,347,10.0,15.0,55,0.00,,,0.00,,2013-03-03 13:11:00,
2013-03-03 08:22:00,30.0,16.0,29.72,NW,312,8.0,13.0,55,0.00,,,0.00,,2013-03-03 13:22:00,
2013-03-03 08:32:00,30.0,16.0,29.72,NNW,333,5.0,9.0,55,0.00,,,0.00,,2013-03-03 13:32:00,
2013-03-03 08:42:00,30.0,16.0,29.72,NNW,333,5.0,9.0,55,0.00,,,0.00,,2013-03-03 13:42:00,
2013-03-03 08:52:00,31.0,17.0,29.72,North,0,9.0,11.0,55,0.00,,,0.00,,2013-03-03 13:52:00,
2013-03-03 09:02:00,31.0,16.0,29.72,North,359,8.0,15.0,54,0.00,,,0.00,,2013-03-03 14:02:00,
2013-03-03 09:11:00,31.0,16.0,29.72,North,359,8.0,15.0,54,0.00,,,0.00,,2013-03-03 14:11:00,
2013-03-03 09:21:00,31.0,16.0,29.72,NNE,15,8.0,10.0,54,0.00,,,0.00,,2013-03-03 14:21:00,
2013-03-03 09:32:00,32.0,16.0,29.72,North,357,3.0,10.0,52,0.00,,,0.00,,2013-03-03 14:32:00,
2013-03-03 09:42:00,32.0,16.0,29.72,North,357,3.0,10.0,52,0.00,,,0.00,,2013-03-03 14:42:00,
2013-03-03 09:52:00,32.0,16.0,29.72,NW,310,7.0,10.0,52,0.00,,,0.00,,2013-03-03 14:52:00,
2013-03-03 10:02:00,32.0,16.0,29.71,NW,325,5.0,10.0,52,0.00,,,0.00,,2013-03-03 15:02:00,
2013-03-03 10:11:00,32.0,16.0,29.71,NW,325,5.0,10.0,52,0.00,,,0.00,,2013-03-03 15:11:00,
2013-03-03 10:22:00,32.0,16.0,29.71,East,83,6.0,11.0,51,0.00,,,0.00,,2013-03-03 15:22:00,
2013-03-03 10:32:00,32.0,16.0,29.71,WNW,302,8.0,15.0,51,0.00,,,0.00,,2013-03-03 15:32:00,
2013-03-03 10:42:00,32.0,16.0,29.71,WNW,302,8.0,15.0,51,0.00,,,0.00,,2013-03-03 15:42:00,
2013-03-03 10:52:00,33.0,17.0,29.71,NW,323,10.0,10.0,51,0.00,,,0.00,,2013-03-03 15:52:00,
2013-03-03 11:02:00,33.0,16.0,29.71,WNW,293,5.0,10.0,50,0.00,,,0.00,,2013-03-03 16:02:00,
2013-03-03 11:12:00,33.0,16.0,29.71,WNW,293,5.0,10.0,50,0.00,,,0.00,,2013-03-03 16:12:00,
2013-03-03 11:22:00,34.0,17.0,29.71,North,357,6.0,13.0,50,0.00,,,0.00,,2013-03-03 16:22:00,
2013-03-03 11:32:00,35.0,17.0,29.70,NW,304,6.0,12.0,47,0.00,,,0.00,,2013-03-03 16:32:00,
2013-03-03 11:42:00,35.0,17.0,29.70,NW,304,6.0,12.0,47,0.00,,,0.00,,2013-03-03 16:42:00,
2013-03-03 11:52:00,36.0,17.0,29.70,NW,316,5.0,10.0,45,0.00,,,0.00,,2013-03-03 16:52:00,
2013-03-03 12:01:00,35.0,16.0,29.70,NNW,328,6.0,11.0,45,0.00,,,0.00,,2013-03-03 17:01:00,
2013-03-03 12:11:00,36.0,16.0,29.69,NNW,336,9.0,11.0,44,0.00,,,0.00,,2013-03-03 17:11:00,
2013-03-03 12:22:00,36.0,16.0,29.69,NNW,336,9.0,11.0,44,0.00,,,0.00,,2013-03-03 17:22:00,
2013-03-03 12:32:00,36.0,16.0,29.69,NNW,336,9.0,11.0,44,0.00,,,0.00,,2013-03-03 17:32:00,
2013-03-03 12:42:00,36.0,16.0,29.69,NNW,336,9.0,11.0,44,0.00,,,0.00,,2013-03-03 17:42:00,
2013-03-03 12:52:00,38.0,16.0,29.68,NNW,338,9.0,10.0,41,0.00,,,0.00,,2013-03-03 17:52:00,
2013-03-03 13:02:00,38.0,16.0,29.67,NW,321,5.0,10.0,41,0.00,,,0.00,,2013-03-03 18:02:00,
2013-03-03 13:11:00,38.0,16.0,29.67,NW,321,5.0,10.0,41,0.00,,,0.00,,2013-03-03 18:11:00,
2013-03-03 13:21:00,38.0,16.0,29.67,West,268,4.0,10.0,41,0.00,,,0.00,,2013-03-03 18:21:00,
2013-03-03 13:32:00,39.0,17.0,29.66,NNW,333,8.0,10.0,40,0.00,,,0.00,,2013-03-03 18:32:00,
2013-03-03 13:42:00,39.0,17.0,29.66,NNW,333,8.0,10.0,40,0.00,,,0.00,,2013-03-03 18:42:00,
2013-03-03 13:52:00,39.0,17.0,29.65,NW,310,9.0,11.0,40,0.00,,,0.00,,2013-03-03 18:52:00,
2013-03-03 14:02:00,39.0,17.0,29.65,NW,310,9.0,11.0,40,0.00,,,0.00,,2013-03-03 19:02:00,
2013-03-03 14:11:00,39.0,17.0,29.65,NW,310,9.0,11.0,40,0.00,,,0.00,,2013-03-03 19:11:00,
2013-03-03 14:22:00,40.0,17.0,29.65,North,0,6.0,13.0,39,0.00,,,0.00,,2013-03-03 19:22:00,
2013-03-03 14:32:00,40.0,16.0,29.64,WNW,290,6.0,14.0,38,0.00,,,0.00,,2013-03-03 19:32:00,
2013-03-03 14:42:00,40.0,16.0,29.64,WNW,290,6.0,14.0,38,0.00,,,0.00,,2013-03-03 19:42:00,
2013-03-03 14:52:00,39.0,16.0,29.64,NW,314,5.0,12.0,39,0.00,,,0.00,,2013-03-03 19:52:00,
2013-03-03 15:01:00,39.0,16.0,29.64,NW,306,10.0,17.0,39,0.00,,,0.00,,2013-03-03 20:01:00,
2013-03-03 15:11:00,39.0,16.0,29.64,NW,306,10.0,17.0,39,0.00,,,0.00,,2013-03-03 20:11:00,
2013-03-03 15:22:00,40.0,17.0,29.64,NNW,348,10.0,13.0,39,0.00,,,0.00,,2013-03-03 20:22:00,
2013-03-03 15:32:00,40.0,17.0,29.64,NW,312,10.0,12.0,39,0.00,,,0.00,,2013-03-03 20:32:00,
2013-03-03 15:42:00,40.0,17.0,29.64,NW,312,10.0,12.0,39,0.00,,,0.00,,2013-03-03 20:42:00,
2013-03-03 15:53:00,39.0,16.0,29.63,NNW,342,13.0,15.0,39,0.00,,,0.00,,2013-03-03 20:53:00,
2013-03-03 16:02:00,39.0,17.0,29.63,NNW,337,10.0,13.0,40,0.00,,,0.00,,2013-03-03 21:02:00,
2013-03-03 16:11:00,39.0,17.0,29.63,NNW,337,10.0,13.0,40,0.00,,,0.00,,2013-03-03 21:11:00,
2013-03-03 16:22:00,39.0,17.0,29.63,NNW,330,12.0,16.0,41,0.00,,,0.00,,2013-03-03 21:22:00,
2013-03-03 16:32:00,39.0,18.0,29.64,NNW,332,3.0,11.0,42,0.00,,,0.00,,2013-03-03 21:32:00,
2013-03-03 16:42:00,39.0,18.0,29.64,NNW,332,3.0,11.0,42,0.00,,,0.00,,2013-03-03 21:42:00,
2013-03-03 16:52:00,38.0,18.0,29.65,North,354,9.0,15.0,44,0.00,,,0.00,,2013-03-03 21:52:00,
2013-03-03 17:02:00,38.0,19.0,29.65,WNW,300,5.0,12.0,45,0.00,,,0.00,,2013-03-03 22:02:00,
2013-03-03 17:11:00,38.0,19.0,29.65,WNW,300,5.0,12.0,45,0.00,,,0.00,,2013-03-03 22:11:00,
2013-03-03 17:22:00,37.0,18.0,29.65,NNW,329,11.0,16.0,45,0.00,,,0.00,,2013-03-03 22:22:00,
2013-03-03 17:32:00,37.0,18.0,29.65,NW,316,10.0,17.0,46,0.00,,,0.00,,2013-03-03 22:32:00,
2013-03-03 17:42:00,37.0,18.0,29.65,NW,316,10.0,17.0,46,0.00,,,0.00,,2013-03-03 22:42:00,
2013-03-03 17:52:00,36.0,18.0,29.66,NW,314,5.0,12.0,47,0.00,,,0.00,,2013-03-03 22:52:00,
2013-03-03 18:01:00,36.0,18.0,29.66,WNW,293,12.0,13.0,47,0.00,,,0.00,,2013-03-03 23:01:00,
2013-03-03 18:11:00,36.0,18.0,29.66,WNW,293,12.0,13.0,47,0.00,,,0.00,,2013-03-03 23:11:00,
2013-03-03 18:21:00,35.0,17.0,29.67,North,359,12.0,12.0,48,0.00,,,0.00,,2013-03-03 23:21:00,
2013-03-03 18:32:00,35.0,17.0,29.67,NNW,327,9.0,14.0,48,0.00,,,0.00,,2013-03-03 23:32:00,
2013-03-03 18:42:00,35.0,17.0,29.67,NNW,327,9.0,14.0,48,0.00,,,0.00,,2013-03-03 23:42:00,
2013-03-03 18:52:00,35.0,18.0,29.68,NW,323,3.0,11.0,49,0.00,,,0.00,,2013-03-03 23:52:00,
2013-03-03 19:02:00,35.0,18.0,29.68,NW,323,3.0,11.0,49,0.00,,,0.00,,2013-03-04 00:02:00,
2013-03-03 19:11:00,35.0,18.0,29.68,NW,323,3.0,11.0,49,0.00,,,0.00,,2013-03-04 00:11:00,
2013-03-03 19:22:00,34.0,16.0,29.69,NNW,335,5.0,15.0,48,0.00,,,0.00,,2013-03-04 00:22:00,
2013-03-03 19:32:00,34.0,16.0,29.70,NW,321,11.0,17.0,48,0.00,,,0.00,,2013-03-04 00:32:00,
2013-03-03 19:42:00,34.0,16.0,29.70,NW,321,11.0,17.0,48,0.00,,,0.00,,2013-03-04 00:42:00,
2013-03-03 19:52:00,33.0,16.0,29.70,NW,323,15.0,16.0,49,0.00,,,0.00,,2013-03-04 00:52:00,
2013-03-03 20:01:00,33.0,16.0,29.70,NW,309,13.0,15.0,50,0.00,,,0.00,,2013-03-04 01:01:00,
2013-03-03 20:12:00,33.0,16.0,29.70,NW,309,13.0,15.0,50,0.00,,,0.00,,2013-03-04 01:12:00,
2013-03-03 20:22:00,33.0,16.0,29.71,WNW,301,12.0,14.0,50,0.00,,,0.00,,2013-03-04 01:22:00,
2013-03-03 20:32:00,32.0,15.0,29.71,NNW,340,10.0,16.0,50,0.00,,,0.00,,2013-03-04 01:32:00,
2013-03-03 20:42:00,32.0,15.0,29.71,NNW,340,10.0,16.0,50,0.00,,,0.00,,2013-03-04 01:42:00,
2013-03-03 20:52:00,32.0,16.0,29.72,NW,312,4.0,13.0,51,0.00,,,0.00,,2013-03-04 01:52:00,
2013-03-03 21:01:00,32.0,16.0,29.72,WNW,297,3.0,10.0,51,0.00,,,0.00,,2013-03-04 02:01:00,
2013-03-03 21:11:00,32.0,16.0,29.72,WNW,297,3.0,10.0,51,0.00,,,0.00,,2013-03-04 02:11:00,
2013-03-03 21:22:00,32.0,16.0,29.72,NNW,335,8.0,12.0,51,0.00,,,0.00,,2013-03-04 02:22:00,
2013-03-03 21:32:00,32.0,16.0,29.73,WNW,295,3.0,10.0,52,0.00,,,0.00,,2013-03-04 02:32:00,
2013-03-03 21:42:00,32.0,16.0,29.73,WNW,295,3.0,10.0,52,0.00,,,0.00,,2013-03-04 02:42:00,
2013-03-03 21:52:00,31.0,15.0,29.73,NW,326,5.0,12.0,52,0.00,,,0.00,,2013-03-04 02:52:00,
2013-03-03 22:02:00,31.0,15.0,29.73,NW,317,10.0,14.0,52,0.00,,,0.00,,2013-03-04 03:02:00,
2013-03-03 22:11:00,31.0,15.0,29.73,NW,317,10.0,14.0,52,0.00,,,0.00,,2013-03-04 03:11:00,
2013-03-03 22:22:00,30.0,15.0,29.73,NW,308,9.0,10.0,52,0.00,,,0.00,,2013-03-04 03:22:00,
2013-03-03 22:32:00,30.0,15.0,29.73,NNW,344,8.0,15.0,53,0.00,,,0.00,,2013-03-04 03:32:00,
2013-03-03 22:42:00,30.0,15.0,29.73,NW,321,4.0,14.0,53,0.00,,,0.00,,2013-03-04 03:42:00,
2013-03-03 22:53:00,30.0,15.0,29.73,NW,321,4.0,14.0,53,0.00,,,0.00,,2013-03-04 03:53:00,
2013-03-03 23:01:00,30.0,15.0,29.73,NNW,328,0.0,12.0,54,0.00,,,0.00,,2013-03-04 04:01:00,
2013-03-03 23:11:00,30.0,15.0,29.73,NNW,328,0.0,12.0,54,0.00,,,0.00,,2013-03-04 04:11:00,
2013-03-03 23:22:00,30.0,15.0,29.74,North,359,9.0,14.0,53,0.00,,,0.00,,2013-03-04 04:22:00,
2013-03-03 23:32:00,29.0,14.0,29.73,WNW,297,3.0,15.0,53,0.00,,,0.00,,2013-03-04 04:32:00,
2013-03-03 23:42:00,29.0,14.0,29.73,WNW,297,3.0,15.0,53,0.00,,,0.00,,2013-03-04 04:42:00,
2013-03-03 23:52:00,29.0,14.0,29.74,NW,319,11.0,11.0,54,0.00,,,0.00,,2013-03-04 04:52:00,